KLM44K EHAM-LFML

Flight info

Callsign KLM44K
Flight time 1h 31m
Altitude 35000
Route WOODY N872 MEDIL DCT KOVIN DCT DUCRA UM728 KETEX DCT KOTIS DCT KUKOR DCT UTUVA/N0440F290 DCT LERGA
Aircraft B738/M-SDE2E3FGHIRWXY/LB1

Departure

Time 2026-04-29 10:54
Airport Amsterdam Airport Schiphol (EHAM)

Arrival

Time 2026-04-29 12:25
Airport Marseille Provence Airport (LFML)
Time Latitude Longitude Altitude Speed Heading
2026-04-29 10:22 52.30676 4.79868 -2 ft 0 kts 131°
2026-04-29 10:44 52.30677 4.79867 -2 ft 2 kts 131°
2026-04-29 10:45 52.30693 4.79837 -2 ft 4 kts 134°
2026-04-29 10:45 52.30712 4.79807 -2 ft 4 kts 138°
2026-04-29 10:45 52.30733 4.79779 -2 ft 4 kts 144°
2026-04-29 10:45 52.30756 4.79756 -2 ft 4 kts 162°
2026-04-29 10:46 52.30778 4.79754 -2 ft 3 kts 218°
2026-04-29 10:46 52.30783 4.79761 -2 ft 0 kts 221°
2026-04-29 10:48 52.30778 4.79753 -2 ft 3 kts 221°
2026-04-29 10:48 52.30739 4.79697 -2 ft 13 kts 221°
2026-04-29 10:48 52.30646 4.79564 -2 ft 22 kts 221°
2026-04-29 10:49 52.30521 4.79386 -2 ft 24 kts 221°
2026-04-29 10:49 52.30399 4.79211 -2 ft 23 kts 221°
2026-04-29 10:49 52.30282 4.79044 -2 ft 22 kts 221°
2026-04-29 10:49 52.30167 4.78882 -2 ft 21 kts 220°
2026-04-29 10:50 52.30066 4.78738 -2 ft 15 kts 221°
2026-04-29 10:50 52.30042 4.78631 -2 ft 9 kts 290°
2026-04-29 10:50 52.30053 4.78602 -2 ft 0 kts 309°
2026-04-29 10:53 52.30061 4.78587 -2 ft 4 kts 309°
2026-04-29 10:53 52.30097 4.78515 -3 ft 12 kts 309°
2026-04-29 10:54 52.30174 4.78542 -4 ft 16 kts 41°
2026-04-29 10:54 52.30468 4.78968 -7 ft 101 kts 41°
2026-04-29 10:54 52.31192 4.79999 135 ft 164 kts 42°
2026-04-29 10:54 52.32091 4.81118 1335 ft 153 kts 41°
2026-04-29 10:55 52.32578 4.82502 2551 ft 142 kts 87°
2026-04-29 10:55 52.32160 4.83974 2880 ft 156 kts 142°
2026-04-29 10:55 52.31035 4.84309 3010 ft 181 kts 175°
2026-04-29 10:55 52.29805 4.84341 2997 ft 170 kts 169°
2026-04-29 10:56 52.28667 4.84481 2984 ft 159 kts 166°
2026-04-29 10:56 52.27554 4.84630 3047 ft 164 kts 168°
2026-04-29 10:56 52.26350 4.84794 3539 ft 188 kts 169°
2026-04-29 10:56 52.24948 4.84868 3965 ft 214 kts 174°
2026-04-29 10:57 52.23400 4.84836 4372 ft 231 kts 176°
2026-04-29 10:57 52.21769 4.84778 4943 ft 237 kts 175°
2026-04-29 10:57 52.20110 4.84721 5570 ft 239 kts 175°
2026-04-29 10:57 52.18440 4.84672 6191 ft 242 kts 175°
2026-04-29 10:58 52.16732 4.84627 6801 ft 250 kts 175°
2026-04-29 10:58 52.14893 4.84587 7184 ft 275 kts 176°
2026-04-29 10:58 52.12955 4.84542 7970 ft 282 kts 176°
2026-04-29 10:58 52.10980 4.84494 8854 ft 285 kts 176°
2026-04-29 10:59 52.08978 4.84448 9688 ft 290 kts 176°
2026-04-29 10:59 52.06946 4.84403 10519 ft 295 kts 177°
2026-04-29 10:59 52.04855 4.84363 10942 ft 316 kts 177°
2026-04-29 10:59 52.02563 4.84269 11142 ft 344 kts 183°
2026-04-29 11:00 52.00220 4.83038 11552 ft 365 kts 205°
2026-04-29 11:00 51.97953 4.81139 12350 ft 368 kts 205°
2026-04-29 11:00 51.95652 4.79277 13156 ft 371 kts 205°
2026-04-29 11:00 51.93319 4.77433 13855 ft 376 kts 204°
2026-04-29 11:01 51.90946 4.75578 14557 ft 381 kts 204°
2026-04-29 11:01 51.88544 4.73705 15266 ft 386 kts 204°
2026-04-29 11:01 51.86109 4.71805 15989 ft 389 kts 204°
2026-04-29 11:01 51.83658 4.69893 16664 ft 394 kts 204°
2026-04-29 11:02 51.81178 4.67961 17276 ft 399 kts 204°
2026-04-29 11:02 51.78665 4.66003 17915 ft 403 kts 204°
2026-04-29 11:02 51.76127 4.64027 18525 ft 407 kts 204°
2026-04-29 11:02 51.73726 4.62161 19065 ft 411 kts 204°
2026-04-29 11:03 51.71135 4.60149 19697 ft 414 kts 204°
2026-04-29 11:03 51.68522 4.58125 20264 ft 419 kts 204°
2026-04-29 11:03 51.65887 4.56085 20847 ft 422 kts 204°
2026-04-29 11:03 51.63227 4.54028 21391 ft 426 kts 204°
2026-04-29 11:04 51.60549 4.51958 21899 ft 430 kts 204°
2026-04-29 11:04 51.57839 4.49865 22410 ft 433 kts 203°
2026-04-29 11:04 51.55114 4.47764 22887 ft 437 kts 203°
2026-04-29 11:04 51.52366 4.45645 23367 ft 440 kts 203°
2026-04-29 11:05 51.49619 4.43530 23820 ft 444 kts 203°
2026-04-29 11:05 51.46793 4.41355 24288 ft 447 kts 203°
2026-04-29 11:05 51.43980 4.39193 24771 ft 449 kts 203°
2026-04-29 11:05 51.41182 4.37049 25162 ft 453 kts 203°
2026-04-29 11:06 51.38325 4.34883 25562 ft 456 kts 202°
2026-04-29 11:06 51.35437 4.32728 25956 ft 459 kts 202°
2026-04-29 11:06 51.32559 4.30591 26369 ft 462 kts 202°
2026-04-29 11:06 51.29644 4.28411 26769 ft 464 kts 203°
2026-04-29 11:07 51.26719 4.26186 27127 ft 467 kts 203°
2026-04-29 11:07 51.23776 4.23935 27484 ft 470 kts 203°
2026-04-29 11:07 51.20826 4.21682 27853 ft 471 kts 203°
2026-04-29 11:07 51.17854 4.19424 28187 ft 474 kts 203°
2026-04-29 11:08 51.14834 4.17303 28509 ft 475 kts 198°
2026-04-29 11:08 51.11724 4.15537 28861 ft 475 kts 196°
2026-04-29 11:08 51.08576 4.13887 29174 ft 477 kts 196°
2026-04-29 11:08 51.05415 4.12252 29502 ft 479 kts 196°
2026-04-29 11:09 51.02244 4.10586 29800 ft 481 kts 197°
2026-04-29 11:09 50.99071 4.08884 30090 ft 483 kts 197°
2026-04-29 11:09 50.95902 4.07159 30542 ft 480 kts 197°
2026-04-29 11:09 50.92763 4.05444 31015 ft 477 kts 198°
2026-04-29 11:10 50.89622 4.03735 31432 ft 475 kts 198°
2026-04-29 11:10 50.86505 4.01992 31790 ft 475 kts 199°
2026-04-29 11:10 50.83431 4.00084 32173 ft 474 kts 201°
2026-04-29 11:10 50.80402 3.98108 32647 ft 469 kts 202°
2026-04-29 11:11 50.77407 3.96132 33204 ft 463 kts 202°
2026-04-29 11:11 50.74436 3.94187 33563 ft 462 kts 202°
2026-04-29 11:11 50.71459 3.92260 33808 ft 463 kts 202°
2026-04-29 11:11 50.68475 3.90348 34077 ft 464 kts 201°
2026-04-29 11:12 50.65485 3.88442 34436 ft 461 kts 202°
2026-04-29 11:12 50.62520 3.86556 34770 ft 460 kts 202°
2026-04-29 11:12 50.59553 3.84670 35055 ft 459 kts 202°
2026-04-29 11:12 50.56596 3.82786 35240 ft 460 kts 202°
2026-04-29 11:13 50.53634 3.80809 35225 ft 462 kts 204°
2026-04-29 11:13 50.47768 3.76758 35225 ft 459 kts 204°
2026-04-29 11:14 50.41947 3.72760 35221 ft 455 kts 204°
2026-04-29 11:14 50.36155 3.68826 35212 ft 452 kts 204°
2026-04-29 11:15 50.30384 3.64922 35216 ft 451 kts 204°
2026-04-29 11:15 50.24663 3.61059 35216 ft 451 kts 204°
2026-04-29 11:16 50.18896 3.57173 35215 ft 452 kts 204°
2026-04-29 11:16 50.13109 3.53283 35212 ft 454 kts 204°
2026-04-29 11:17 50.07303 3.49391 35208 ft 455 kts 204°
2026-04-29 11:17 50.01469 3.45494 35201 ft 457 kts 204°
2026-04-29 11:18 49.95626 3.41598 35204 ft 457 kts 204°
2026-04-29 11:18 49.89781 3.37705 35198 ft 457 kts 204°
2026-04-29 11:19 49.83952 3.33841 35183 ft 455 kts 204°
2026-04-29 11:19 49.78142 3.29996 35179 ft 452 kts 204°
2026-04-29 11:20 49.72371 3.26189 35170 ft 450 kts 205°
2026-04-29 11:20 49.66635 3.22413 35172 ft 447 kts 204°
2026-04-29 11:21 49.60932 3.18669 35175 ft 444 kts 205°
2026-04-29 11:21 49.55258 3.14950 35174 ft 442 kts 205°
2026-04-29 11:22 49.49610 3.11255 35169 ft 441 kts 206°
2026-04-29 11:22 49.44349 3.06509 35168 ft 438 kts 216°
2026-04-29 11:23 49.39315 3.01266 35165 ft 438 kts 216°
2026-04-29 11:23 49.34253 2.96059 35159 ft 438 kts 215°
2026-04-29 11:24 49.29175 2.90910 35156 ft 438 kts 215°
2026-04-29 11:24 49.24936 2.86639 35153 ft 438 kts 215°
2026-04-29 11:25 49.19008 2.80683 35145 ft 439 kts 215°
2026-04-29 11:25 49.14739 2.76400 35138 ft 439 kts 215°
2026-04-29 11:26 49.07090 2.68748 35135 ft 438 kts 215°
2026-04-29 11:26 49.01997 2.63671 35130 ft 437 kts 215°
2026-04-29 11:27 48.96909 2.58610 35131 ft 436 kts 215°
2026-04-29 11:27 48.91829 2.53567 35131 ft 435 kts 215°
2026-04-29 11:28 48.86761 2.48548 35128 ft 434 kts 215°
2026-04-29 11:28 48.81704 2.43551 35123 ft 433 kts 215°
2026-04-29 11:29 48.76657 2.38576 35110 ft 432 kts 215°
2026-04-29 11:29 48.71649 2.33647 35108 ft 432 kts 215°
2026-04-29 11:30 48.66620 2.28709 35100 ft 431 kts 215°
2026-04-29 11:30 48.61590 2.23784 35103 ft 430 kts 215°
2026-04-29 11:31 48.58951 2.21551 35079 ft 433 kts 203°
2026-04-29 11:31 48.56051 2.20506 35116 ft 437 kts 188°
2026-04-29 11:31 48.53003 2.20548 35097 ft 443 kts 174°
2026-04-29 11:31 48.49946 2.21594 35114 ft 445 kts 169°
2026-04-29 11:32 48.43999 2.24006 35095 ft 446 kts 168°
2026-04-29 11:32 48.38001 2.26355 35093 ft 446 kts 169°
2026-04-29 11:33 48.31983 2.28620 35080 ft 446 kts 169°
2026-04-29 11:33 48.25965 2.30901 35085 ft 447 kts 169°
2026-04-29 11:34 48.19965 2.33325 35079 ft 447 kts 168°
2026-04-29 11:34 48.13944 2.35745 35074 ft 448 kts 168°
2026-04-29 11:35 48.07974 2.38499 35063 ft 450 kts 165°
2026-04-29 11:35 48.02036 2.41525 35058 ft 451 kts 165°
2026-04-29 11:36 47.96097 2.44541 35056 ft 451 kts 165°
2026-04-29 11:36 47.90147 2.47512 35050 ft 451 kts 165°
2026-04-29 11:37 47.84190 2.50460 35044 ft 451 kts 165°
2026-04-29 11:37 47.78230 2.53394 35045 ft 451 kts 165°
2026-04-29 11:38 47.72273 2.56323 35043 ft 451 kts 165°
2026-04-29 11:38 47.66313 2.59249 35034 ft 451 kts 165°
2026-04-29 11:39 47.60360 2.62163 35036 ft 451 kts 165°
2026-04-29 11:39 47.54403 2.65073 35028 ft 451 kts 165°
2026-04-29 11:40 47.48454 2.67972 35025 ft 450 kts 165°
2026-04-29 11:40 47.42503 2.70863 35027 ft 450 kts 165°
2026-04-29 11:41 47.36543 2.73754 35019 ft 450 kts 165°
2026-04-29 11:41 47.30628 2.76617 35008 ft 451 kts 165°
2026-04-29 11:42 47.24667 2.79495 35014 ft 451 kts 165°
2026-04-29 11:42 47.18710 2.82359 35005 ft 450 kts 166°
2026-04-29 11:43 47.12748 2.85211 35014 ft 450 kts 165°
2026-04-29 11:43 47.06784 2.88058 35004 ft 451 kts 165°
2026-04-29 11:44 47.00817 2.90902 35012 ft 451 kts 165°
2026-04-29 11:44 46.94843 2.93744 35005 ft 451 kts 165°
2026-04-29 11:45 46.88864 2.96580 35014 ft 452 kts 165°
2026-04-29 11:45 46.82888 2.99410 35011 ft 452 kts 165°
2026-04-29 11:46 46.76906 3.02234 35008 ft 452 kts 166°
2026-04-29 11:46 46.70928 3.05053 35014 ft 452 kts 166°
2026-04-29 11:47 46.64945 3.07864 35013 ft 452 kts 166°
2026-04-29 11:47 46.58966 3.10670 35012 ft 452 kts 166°
2026-04-29 11:48 46.52980 3.13481 35008 ft 452 kts 165°
2026-04-29 11:48 46.47071 3.16613 35011 ft 453 kts 162°
2026-04-29 11:49 46.41175 3.19868 34996 ft 453 kts 162°
2026-04-29 11:49 46.35273 3.23080 35006 ft 453 kts 163°
2026-04-29 11:50 46.29366 3.26241 34998 ft 453 kts 163°
2026-04-29 11:50 46.23459 3.29399 34997 ft 453 kts 163°
2026-04-29 11:51 46.17630 3.32510 34982 ft 453 kts 163°
2026-04-29 11:51 46.11721 3.35655 34996 ft 453 kts 163°
2026-04-29 11:52 46.05803 3.38794 34999 ft 454 kts 163°
2026-04-29 11:52 45.99876 3.41933 35000 ft 454 kts 163°
2026-04-29 11:53 45.93948 3.45068 35008 ft 454 kts 163°
2026-04-29 11:53 45.88015 3.48197 34995 ft 454 kts 163°
2026-04-29 11:54 45.82033 3.51082 34999 ft 453 kts 166°
2026-04-29 11:54 45.76003 3.53619 34996 ft 452 kts 167°
2026-04-29 11:55 45.69960 3.56153 35000 ft 452 kts 166°
2026-04-29 11:55 45.63937 3.58719 34997 ft 452 kts 166°
2026-04-29 11:56 45.57905 3.61300 34856 ft 454 kts 166°
2026-04-29 11:56 45.54899 3.62586 34289 ft 457 kts 166°
2026-04-29 11:56 45.51856 3.63886 33636 ft 457 kts 166°
2026-04-29 11:57 45.48814 3.65185 32962 ft 457 kts 166°
2026-04-29 11:57 45.45727 3.66502 32307 ft 456 kts 166°
2026-04-29 11:57 45.42701 3.67791 31823 ft 451 kts 166°
2026-04-29 11:57 45.39705 3.69064 31320 ft 448 kts 166°
2026-04-29 11:58 45.36774 3.70310 30834 ft 443 kts 166°
2026-04-29 11:58 45.33833 3.71558 30345 ft 439 kts 166°
2026-04-29 11:58 45.30914 3.72796 29858 ft 435 kts 166°
2026-04-29 11:58 45.28043 3.74080 29367 ft 433 kts 160°
2026-04-29 11:59 45.25477 3.76311 28888 ft 434 kts 141°
2026-04-29 11:59 45.23498 3.79502 28533 ft 430 kts 126°
2026-04-29 11:59 45.21882 3.83044 28184 ft 427 kts 123°
2026-04-29 11:59 45.20302 3.86639 27810 ft 432 kts 123°
2026-04-29 12:00 45.18709 3.90265 27429 ft 434 kts 123°
2026-04-29 12:00 45.17105 3.93874 27049 ft 432 kts 124°
2026-04-29 12:00 45.15495 3.97454 26658 ft 429 kts 124°
2026-04-29 12:00 45.13892 4.00985 26283 ft 425 kts 124°
2026-04-29 12:01 45.12291 4.04492 25894 ft 422 kts 124°
2026-04-29 12:01 45.10699 4.07971 25526 ft 419 kts 124°
2026-04-29 12:01 45.09123 4.11412 25168 ft 416 kts 123°
2026-04-29 12:01 45.07555 4.14833 24798 ft 413 kts 123°
2026-04-29 12:02 45.05997 4.18227 24443 ft 411 kts 123°
2026-04-29 12:02 45.04482 4.21521 24089 ft 408 kts 124°
2026-04-29 12:02 45.02642 4.24529 23696 ft 404 kts 143°
2026-04-29 12:02 45.00288 4.26651 23400 ft 399 kts 151°
2026-04-29 12:03 44.97880 4.28594 23041 ft 398 kts 152°
2026-04-29 12:03 44.95477 4.30510 22688 ft 396 kts 152°
2026-04-29 12:03 44.93086 4.32424 22346 ft 394 kts 151°
2026-04-29 12:03 44.90718 4.34336 21995 ft 392 kts 151°
2026-04-29 12:04 44.88356 4.36258 21639 ft 391 kts 151°
2026-04-29 12:04 44.86003 4.38180 21303 ft 390 kts 151°
2026-04-29 12:04 44.83660 4.40098 20959 ft 389 kts 151°
2026-04-29 12:04 44.81327 4.42006 20614 ft 387 kts 151°
2026-04-29 12:05 44.79007 4.43900 20265 ft 385 kts 151°
2026-04-29 12:05 44.76693 4.45789 19927 ft 383 kts 151°
2026-04-29 12:05 44.74398 4.47662 19591 ft 379 kts 151°
2026-04-29 12:05 44.72133 4.49507 19265 ft 374 kts 151°
2026-04-29 12:06 44.69891 4.51331 18926 ft 371 kts 151°
2026-04-29 12:06 44.67651 4.53146 18607 ft 372 kts 152°
2026-04-29 12:06 44.65290 4.54433 18268 ft 368 kts 168°
2026-04-29 12:06 44.62796 4.55188 17976 ft 366 kts 169°
2026-04-29 12:07 44.60305 4.55915 17638 ft 366 kts 169°
2026-04-29 12:07 44.57821 4.56648 17325 ft 365 kts 169°
2026-04-29 12:07 44.55347 4.57394 17002 ft 363 kts 169°
2026-04-29 12:07 44.52893 4.58145 16690 ft 360 kts 169°
2026-04-29 12:08 44.50444 4.58903 16374 ft 359 kts 169°
2026-04-29 12:08 44.48016 4.59657 16053 ft 356 kts 168°
2026-04-29 12:08 44.45611 4.60406 15742 ft 354 kts 168°
2026-04-29 12:08 44.43211 4.61154 15432 ft 351 kts 168°
2026-04-29 12:09 44.40834 4.61894 15114 ft 349 kts 168°
2026-04-29 12:09 44.38469 4.62629 14818 ft 347 kts 169°
2026-04-29 12:09 44.36121 4.63358 14506 ft 344 kts 168°
2026-04-29 12:09 44.33785 4.64082 14210 ft 343 kts 169°
2026-04-29 12:10 44.32220 4.64568 14001 ft 341 kts 168°
2026-04-29 12:10 44.29932 4.65192 13701 ft 338 kts 173°
2026-04-29 12:10 44.27604 4.65560 13410 ft 335 kts 175°
2026-04-29 12:10 44.25287 4.65849 13115 ft 333 kts 176°
2026-04-29 12:11 44.22983 4.66137 12819 ft 332 kts 175°
2026-04-29 12:11 44.20688 4.66442 12529 ft 330 kts 175°
2026-04-29 12:11 44.18408 4.66762 12232 ft 329 kts 175°
2026-04-29 12:11 44.16140 4.67088 11953 ft 327 kts 175°
2026-04-29 12:12 44.13884 4.67415 11663 ft 326 kts 175°
2026-04-29 12:12 44.11638 4.67811 11369 ft 325 kts 168°
2026-04-29 12:12 44.09496 4.68804 11094 ft 324 kts 158°
2026-04-29 12:12 44.07450 4.70039 10809 ft 318 kts 156°
2026-04-29 12:13 44.05440 4.71263 10521 ft 312 kts 157°
2026-04-29 12:13 44.03458 4.72422 10246 ft 307 kts 158°
2026-04-29 12:13 44.01504 4.73534 9992 ft 302 kts 158°
2026-04-29 12:13 43.99601 4.74592 9972 ft 285 kts 158°
2026-04-29 12:14 43.97807 4.75603 9592 ft 278 kts 158°
2026-04-29 12:14 43.96041 4.76598 9288 ft 271 kts 158°
2026-04-29 12:14 43.94302 4.77577 9026 ft 269 kts 158°
2026-04-29 12:14 43.92568 4.78549 8787 ft 269 kts 158°
2026-04-29 12:15 43.90832 4.79525 8536 ft 269 kts 158°
2026-04-29 12:15 43.89099 4.80497 8294 ft 269 kts 158°
2026-04-29 12:15 43.87370 4.81467 8044 ft 268 kts 158°
2026-04-29 12:15 43.85713 4.82396 7825 ft 266 kts 158°
2026-04-29 12:16 43.83942 4.83388 7581 ft 266 kts 158°
2026-04-29 12:16 43.82227 4.84346 7340 ft 265 kts 158°
2026-04-29 12:16 43.80531 4.85292 7111 ft 263 kts 158°
2026-04-29 12:16 43.78836 4.86244 6895 ft 262 kts 157°
2026-04-29 12:17 43.77158 4.87192 6689 ft 257 kts 157°
2026-04-29 12:17 43.75551 4.88096 6604 ft 243 kts 157°
2026-04-29 12:17 43.74030 4.88949 6494 ft 229 kts 157°
2026-04-29 12:17 43.72595 4.89752 6415 ft 216 kts 157°
2026-04-29 12:18 43.71240 4.90506 6305 ft 204 kts 158°
2026-04-29 12:18 43.69896 4.91270 5811 ft 211 kts 157°
2026-04-29 12:18 43.68545 4.92050 5529 ft 211 kts 157°
2026-04-29 12:18 43.67208 4.92814 5306 ft 205 kts 157°
2026-04-29 12:19 43.65931 4.93543 5143 ft 198 kts 157°
2026-04-29 12:19 43.64664 4.94264 4945 ft 195 kts 157°
2026-04-29 12:19 43.63418 4.94976 4771 ft 193 kts 157°
2026-04-29 12:19 43.62186 4.95680 4629 ft 190 kts 156°
2026-04-29 12:20 43.61120 4.96649 4678 ft 186 kts 134°
2026-04-29 12:20 43.60211 4.98024 4430 ft 195 kts 134°
2026-04-29 12:20 43.59270 4.99350 4167 ft 193 kts 135°
2026-04-29 12:20 43.58346 5.00623 3924 ft 191 kts 135°
2026-04-29 12:21 43.57435 5.01880 3655 ft 191 kts 135°
2026-04-29 12:21 43.56511 5.03156 3426 ft 185 kts 135°
2026-04-29 12:21 43.55610 5.04404 3168 ft 184 kts 135°
2026-04-29 12:21 43.54726 5.05631 2941 ft 178 kts 136°
2026-04-29 12:22 43.53850 5.06832 2686 ft 175 kts 135°
2026-04-29 12:22 43.52995 5.07989 2482 ft 172 kts 134°
2026-04-29 12:22 43.52144 5.09186 2247 ft 177 kts 133°
2026-04-29 12:22 43.51288 5.10386 2001 ft 172 kts 134°
2026-04-29 12:23 43.50465 5.11523 1785 ft 165 kts 136°
2026-04-29 12:23 43.49653 5.12622 1564 ft 163 kts 136°
2026-04-29 12:23 43.48866 5.13740 1309 ft 159 kts 137°
2026-04-29 12:23 43.48093 5.14811 1140 ft 160 kts 137°
2026-04-29 12:24 43.47331 5.15862 935 ft 159 kts 138°
2026-04-29 12:24 43.46582 5.16901 728 ft 156 kts 138°
2026-04-29 12:24 43.45821 5.17938 530 ft 152 kts 138°
2026-04-29 12:24 43.45091 5.18965 302 ft 156 kts 137°
2026-04-29 12:25 43.44331 5.20029 144 ft 155 kts 137°
2026-04-29 12:25 43.43584 5.21053 33 ft 142 kts 136°
2026-04-29 12:25 43.42691 5.22295 58 ft 37 kts 136°
2026-04-29 12:26 43.42637 5.22374 63 ft 0 kts 124°
2026-04-29 12:26 43.42621 5.22428 62 ft 13 kts 99°
2026-04-29 12:26 43.42639 5.22584 61 ft 18 kts 75°
2026-04-29 12:26 43.42678 5.22742 60 ft 17 kts 64°
2026-04-29 12:27 43.42756 5.22860 66 ft 17 kts 38°
2026-04-29 12:27 43.42848 5.22950 65 ft 16 kts 19°
2026-04-29 12:27 43.42937 5.22879 66 ft 15 kts 313°
2026-04-29 12:27 43.43009 5.22772 57 ft 15 kts 314°
2026-04-29 12:28 43.43083 5.22672 58 ft 15 kts 315°
2026-04-29 12:28 43.43158 5.22571 58 ft 15 kts 314°
2026-04-29 12:28 43.43230 5.22469 51 ft 15 kts 313°
2026-04-29 12:28 43.43301 5.22365 54 ft 15 kts 314°
2026-04-29 12:29 43.43386 5.22288 49 ft 15 kts 341°
2026-04-29 12:29 43.43486 5.22232 48 ft 16 kts 330°
2026-04-29 12:29 43.43581 5.22156 48 ft 16 kts 330°
2026-04-29 12:29 43.43682 5.22120 45 ft 16 kts 30°
2026-04-29 12:30 43.43755 5.22220 46 ft 15 kts 20°
2026-04-29 12:30 43.43852 5.22200 43 ft 11 kts 339°
2026-04-29 12:30 43.43877 5.22184 42 ft 2 kts 337°
2026-04-29 12:30 43.43892 5.22182 44 ft 0 kts